Powrót do katalogu

STARLINK-36574

AktywnyŁącznośćSSO
NORAD 67535·PAYLOAD·🇺🇸 United States

Wystrzelony Jan 22, 2026 z Vandenberg Space Force Base

Loading…

Następne Przeloty (najbliższe 24 godziny)

TLE

ŚwieżeSource: CelesTrak SupGP

Epoka: Sep 14, 2026, 22:37 UTC

1 67535C 26014D   26257.94284722  .00021278  00000+0  66067-3 0  2573
2 67535  97.2848 143.4034 0001629  89.6377  58.3469 15.33420395    14

Śledź STARLINK-36574 w czasie rzeczywistym z AllMySat

Download on the App Store